Volver al catálogo

UMBRA-12

ActivoCienciaSSO
NORAD 67371·PAYLOAD·🇺🇸 United States

Lanzado Jan 11, 2026 desde Vandenberg Space Force Base

Loading…

Próximos Pases (próximas 24 horas)

TLE

ActualizadoSource: Space-Track

Época: Sep 14, 2026, 10:40 UTC

1 67371U 26004J   26257.44493771  .00003188  00000-0  33659-3 0  9996
2 67371  97.8078 255.0456 0005481 181.5635 178.5567 14.89961356 36593

Sigue UMBRA-12 en tiempo real con AllMySat

Download on the App Store